Watford City, ND

5:56 PM CDT on March 24, 2017 (GMT -0500)
Watford City

Weather History for KS25 - January, 2012

Change the Weather History Date:

Sunday, January 29, 2012

  Actual Average (KISN) Record (KISN)
Temperature  
Mean Temperature 24 °F -  
Max Temperature 41 °F 21 °F 51 °F (1931)
Min Temperature 6 °F -2 °F -40 °F (1966)
Degree Days  
Heating Degree Days 42    
Moisture  
Dew Point 19 °F    
Average Humidity 76    
Maximum Humidity 92    
Minimum Humidity 60    
Precipitation  
Precipitation 0.00 in - - ()
Sea Level Pressure  
Sea Level Pressure 29.76 in    
Wind  
Wind Speed 5 mph (South)    
Max Wind Speed 14 mph    
Max Gust Speed 20 mph    
Visibility 10 miles    
Events Rain , Snow    
Averages and records for this station are not official NWS values.
T = Trace of Precipitation, MM = Missing Value Source: NWS Daily Summary

Daily Weather History Graph

Daily Weather History Graph

Search for Another Location

Airport or City:

Trip Planner

Search our weather history database for the weather conditions in past years. The results will help you decide how hot, cold, wet, or windy it might be!

Date:

Astronomy

Jan. 29, 2012 Rise Set
Actual Time 8:24 AM CST 5:48 PM CST
Civil Twilight 7:50 AM CST 6:21 PM CST
Nautical Twilight 7:13 AM CST 6:59 PM CST
Astronomical Twilight 6:37 AM CST 7:35 PM CST
Moon 10:42 AM CST (1/29) 12:09 AM CST (1/29)
Length of Visible Light 10h 30m
Length of Day
9h 23m
Waxing Crescent, 37% of the Moon is Illuminated
Jan 29
Waxing Crescent
Jan 30
First Quarter
Feb 7
Full
Feb 14
Last Quarter
Feb 21
New

Hourly Weather History & Observations

Time (CST) Temp. Windchill Dew Point Humidity Pressure Visibility Wind Dir Wind Speed Gust Speed Precip Events Conditions
12:15 AM 14.0 °F - 8.6 °F 79% 30.05 in 10.0 mi Calm Calm - N/A   Clear
12:35 AM 10.4 °F - 6.8 °F 85% 30.05 in 10.0 mi Calm Calm - N/A   Clear
12:55 AM 8.6 °F -1.3 °F 6.8 °F 92% 30.05 in 8.0 mi SW 5.8 mph - N/A   Clear
1:15 AM 10.4 °F - 6.8 °F 85% 30.05 in 10.0 mi Calm Calm - N/A   Clear
1:35 AM 8.6 °F 2.0 °F 5.0 °F 85% 30.04 in 10.0 mi SW 3.5 mph - N/A   Clear
1:55 AM 8.6 °F - 5.0 °F 85% 30.03 in 10.0 mi Calm Calm - N/A   Clear
2:15 AM 8.6 °F - 6.8 °F 92% 30.03 in 10.0 mi Calm Calm - N/A   Clear
2:35 AM 6.8 °F - 5.0 °F 92% 30.02 in 10.0 mi Calm Calm - N/A   Clear
2:55 AM 8.6 °F - 5.0 °F 85% 30.03 in 10.0 mi Calm Calm - N/A   Partly Cloudy
3:15 AM 6.8 °F - 5.0 °F 92% 30.01 in 10.0 mi Calm Calm - N/A   Scattered Clouds
3:35 AM 10.4 °F 4.0 °F 6.8 °F 85% 30.01 in 10.0 mi South 3.5 mph - N/A   Mostly Cloudy
4:35 AM 14.0 °F 5.1 °F 10.4 °F 86% 29.98 in 10.0 mi ESE 5.8 mph - N/A   Overcast
4:55 AM 15.8 °F 6.1 °F 10.4 °F 79% 29.97 in 10.0 mi SE 6.9 mph - N/A   Overcast
5:15 AM 17.6 °F 7.3 °F 12.2 °F 79% 29.97 in 10.0 mi South 8.1 mph - N/A   Overcast
5:55 AM 17.6 °F 6.4 °F 12.2 °F 79% 29.93 in 10.0 mi SE 9.2 mph - N/A   Overcast
6:15 AM 19.4 °F 7.9 °F 10.4 °F 68% 29.92 in 10.0 mi SSE 10.4 mph - N/A   Mostly Cloudy
6:35 AM 19.4 °F 7.2 °F 10.4 °F 68% 29.90 in 10.0 mi SE 11.5 mph - N/A   Overcast
6:55 AM 19.4 °F 6.6 °F 10.4 °F 68% 29.89 in 10.0 mi SE 12.7 mph - N/A   Overcast
7:15 AM 19.4 °F 6.0 °F 10.4 °F 68% 29.88 in 10.0 mi SE 13.8 mph - N/A Snow Light Snow
7:35 AM 19.4 °F 7.2 °F 12.2 °F 74% 29.87 in 10.0 mi SE 11.5 mph - N/A   Overcast
7:55 AM 19.4 °F 7.9 °F 12.2 °F 74% 29.86 in 10.0 mi SE 10.4 mph - N/A   Overcast
8:15 AM 21.2 °F 8.9 °F 12.2 °F 68% 29.84 in 10.0 mi SE 12.7 mph 19.6 mph N/A   Overcast
8:35 AM 21.2 °F 9.5 °F 14.0 °F 74% 29.83 in 10.0 mi SE 11.5 mph - N/A   Overcast
8:55 AM 23.0 °F 13.1 °F 14.0 °F 68% 29.82 in 10.0 mi SSE 9.2 mph - N/A   Overcast
9:15 AM 23.0 °F 13.9 °F 14.0 °F 68% 29.82 in 10.0 mi SE 8.1 mph - N/A   Overcast
9:35 AM 23.0 °F 12.4 °F 14.0 °F 68% 29.80 in 10.0 mi SE 10.4 mph - N/A   Overcast
9:55 AM 23.0 °F 15.8 °F 15.8 °F 74% 29.79 in 10.0 mi SSE 5.8 mph - N/A   Overcast
10:15 AM 24.8 °F 14.6 °F 15.8 °F 69% 29.78 in 10.0 mi SSE 10.4 mph - N/A   Mostly Cloudy
10:35 AM 24.8 °F 14.0 °F 15.8 °F 69% 29.76 in 10.0 mi SSE 11.5 mph - N/A   Mostly Cloudy
10:55 AM 26.6 °F 16.2 °F 15.8 °F 64% 29.75 in 10.0 mi SSE 11.5 mph - N/A   Mostly Cloudy
11:15 AM 26.6 °F 15.7 °F 15.8 °F 64% 29.73 in 10.0 mi SSE 12.7 mph 17.3 mph N/A   Scattered Clouds
11:35 AM 28.4 °F 18.0 °F 17.6 °F 64% 29.73 in 10.0 mi SSE 12.7 mph - N/A   Partly Cloudy
11:55 AM 28.4 °F 18.5 °F 17.6 °F 64% 29.72 in 10.0 mi South 11.5 mph 16.1 mph N/A   Clear
12:15 PM 30.2 °F 20.2 °F 17.6 °F 60% 29.71 in 10.0 mi South 12.7 mph - N/A   Partly Cloudy
12:35 PM 32.0 °F 24.2 °F 21.2 °F 64% 29.69 in 10.0 mi SSE 9.2 mph - N/A Rain Light Rain
12:55 PM 32.0 °F 25.6 °F 24.8 °F 75% 29.67 in 9.0 mi South 6.9 mph - N/A Rain Light Rain
1:15 PM 32.0 °F 24.8 °F 28.4 °F 87% 29.64 in 10.0 mi SSE 8.1 mph - N/A Rain Light Rain
1:35 PM 32.0 °F 24.2 °F 28.4 °F 87% 29.63 in 10.0 mi South 9.2 mph - N/A   Mostly Cloudy
1:55 PM 33.8 °F 26.4 °F 28.4 °F 81% 29.62 in 10.0 mi South 9.2 mph - N/A   Mostly Cloudy
2:15 PM 33.8 °F 28.6 °F 28.4 °F 81% 29.61 in 10.0 mi SSE 5.8 mph - N/A   Overcast
2:35 PM 33.8 °F 27.0 °F 30.2 °F 87% 29.60 in 10.0 mi SSE 8.1 mph - N/A   Overcast
2:55 PM 35.6 °F 29.9 °F 30.2 °F 81% 29.59 in 10.0 mi SSE 6.9 mph - N/A   Overcast
3:15 PM 35.6 °F 31.7 °F 30.2 °F 81% 29.58 in 10.0 mi SSE 4.6 mph - N/A   Overcast
3:35 PM 35.6 °F 29.9 °F 32.0 °F 87% 29.57 in 10.0 mi South 6.9 mph - N/A   Overcast
3:55 PM 37.4 °F 32.8 °F 32.0 °F 81% 29.56 in 10.0 mi SE 5.8 mph - N/A   Overcast
4:15 PM 37.4 °F - 32.0 °F 81% 29.56 in 10.0 mi Calm Calm - N/A   Mostly Cloudy
4:35 PM 37.4 °F - 32.0 °F 81% 29.55 in 10.0 mi Calm Calm - N/A   Overcast
4:55 PM 41.0 °F 36.4 °F 32.0 °F 70% 29.54 in 10.0 mi SW 6.9 mph - N/A   Overcast
5:15 PM 39.2 °F 35.9 °F 32.0 °F 75% 29.54 in 10.0 mi WSW 4.6 mph - N/A   Overcast
5:35 PM 39.2 °F 33.6 °F 32.0 °F 75% 29.54 in 10.0 mi WSW 8.1 mph - N/A   Mostly Cloudy
5:55 PM 39.2 °F 34.2 °F 32.0 °F 75% 29.54 in 10.0 mi WSW 6.9 mph - N/A   Mostly Cloudy
6:15 PM 39.2 °F 35.9 °F 32.0 °F 75% 29.54 in 10.0 mi WSW 4.6 mph - N/A   Mostly Cloudy
6:35 PM 39.2 °F 33.6 °F 32.0 °F 75% 29.53 in 10.0 mi SW 8.1 mph - N/A   Scattered Clouds
6:55 PM 37.4 °F 32.1 °F 30.2 °F 75% 29.53 in 10.0 mi WSW 6.9 mph - N/A   Partly Cloudy
7:15 PM 39.2 °F 33.6 °F 30.2 °F 70% 29.53 in 10.0 mi WSW 8.1 mph - N/A   Clear
7:35 PM 39.2 °F 35.0 °F 30.2 °F 70% 29.53 in 10.0 mi WSW 5.8 mph - N/A   Partly Cloudy
7:55 PM 39.2 °F 33.6 °F 28.4 °F 65% 29.53 in 10.0 mi WSW 8.1 mph - N/A   Clear
8:15 PM 39.2 °F 33.6 °F 28.4 °F 65% 29.53 in 10.0 mi WSW 8.1 mph - N/A   Clear
8:35 PM 37.4 °F 32.1 °F 28.4 °F 70% 29.53 in 10.0 mi WSW 6.9 mph - N/A   Clear
8:55 PM 39.2 °F 33.0 °F 28.4 °F 65% 29.53 in 10.0 mi WSW 9.2 mph - N/A   Clear
9:15 PM 39.2 °F 32.5 °F 28.4 °F 65% 29.52 in 10.0 mi WSW 10.4 mph - N/A   Clear
9:35 PM 41.0 °F 33.5 °F 28.4 °F 61% 29.53 in 10.0 mi WSW 13.8 mph - N/A   Clear
9:55 PM 41.0 °F 34.3 °F 28.4 °F 61% 29.53 in 10.0 mi WSW 11.5 mph - N/A   Clear
10:15 PM 41.0 °F 34.3 °F 28.4 °F 61% 29.52 in 10.0 mi WSW 11.5 mph - N/A   Clear
10:35 PM 37.4 °F 31.4 °F 28.4 °F 70% 29.52 in 10.0 mi SW 8.1 mph - N/A   Clear
10:55 PM 35.6 °F 28.0 °F 28.4 °F 75% 29.52 in 10.0 mi WSW 10.4 mph - N/A   Clear
11:15 PM 39.2 °F 31.2 °F 28.4 °F 65% 29.53 in 10.0 mi West 13.8 mph - N/A   Clear
11:35 PM 39.2 °F 31.6 °F 28.4 °F 65% 29.52 in 10.0 mi West 12.7 mph - N/A   Clear
11:55 PM 39.2 °F 32.0 °F 28.4 °F 65% 29.52 in 10.0 mi West 11.5 mph - N/A   Clear